Flag for Netherlands Weather past 2 weeks in Ede, Netherlands

Now
61 °F

Passing clouds.


Feels Like: 61 °F
Forecast: 55 / 82 °F
Wind: 8 mph from Southwest

Location: Deelen

Current Time: Jul 6, 2015 at 2:12:54 AM

Latest Report: Jul 6, 2015 at 1:25 AM


Visibility: N/A

Pressure: 30.07 "Hg

Humidity: 83%

Dew point: 55 °F

Location of EdeLocation

Historic Weather in Ede — Graph

°F

Ede temperature yesterday

Maximum temperature yesterday: 82 °F (at 2:25 PM)
Minimum temperature yesterday: 61 °F (at 5:55 AM)
Average temperature yesterday: 70 °F

Past Weeks' High & Low Weather Summary

 TemperatureHumidityPressure
High97 °F (Jul 2, 3:25 PM)100% (Jun 21, 1:55 PM)30.24 "Hg (Jun 21, 1:55 PM)
Low45 °F (Jun 23, 2:55 AM)26% (Jul 1, 4:25 PM)29.68 "Hg (Jun 22, 5:55 PM)
Average66 °F72%30.05 "Hg
* Reported Jun 21 12:25 AM — Jul 6 12:55 AM, Ede, Weather by CustomWeather, © 2015

Note: Actual official high and low records may vary slightly from our data, if they occured in-between our weather recording intervals... More about our weather records

Advertising

Ede weather history for previous 24 hours

 ConditionsComfort  
Time TempWeatherWind HumidityBarometerVisibility
12:55 AM
Mon, Jul 6
61 °FPassing clouds.7 mph88%30.07 "HgN/A
12:25 AM61 °FPassing clouds.6 mph88%30.04 "HgN/A
11:55 PM
Sun, Jul 5
63 °FPassing clouds.8 mph83%30.04 "HgN/A
11:25 PM61 °FPassing clouds.6 mph88%30.04 "HgN/A
10:55 PM64 °FOvercast.6 mph78%30.01 "HgN/A
10:25 PM66 °FMild.9 mph73%30.01 "HgN/A
9:55 PM66 °FPartly sunny.9 mph73%29.98 "HgN/A
9:25 PM66 °FPassing clouds.9 mph73%29.98 "HgN/A
8:55 PM68 °FMild.10 mph69%29.98 "HgN/A
8:25 PM70 °FPassing clouds.9 mph64%29.98 "HgN/A
7:55 PM70 °FScattered clouds.6 mph64%29.98 "HgN/A
7:25 PM70 °FPartly sunny.7 mph64%29.98 "HgN/A
6:55 PM70 °FOvercast.3 mph69%29.95 "HgN/A
6:25 PM68 °FThunderstorms. Broken clouds.6 mph69%29.98 "HgN/A
5:55 PM68 °FPartly sunny.17 mph69%29.95 "HgN/A
5:25 PM68 °FMore clouds than sun.23 mph69%29.98 "HgN/A
4:55 PM70 °FOvercast.24 mph64%29.98 "HgN/A
4:25 PM73 °FMore clouds than sun.28 mph65%29.92 "HgN/A
3:55 PM82 °FPartly sunny.7 mph62%29.92 "HgN/A
3:25 PM82 °FPartly sunny.8 mph62%29.92 "HgN/A
2:55 PM82 °FPartly sunny.10 mph62%29.92 "HgN/A
2:25 PM82 °FPassing clouds.9 mph58%29.92 "HgN/A
1:55 PM81 °FScattered clouds.7 mph66%29.95 "HgN/A
1:25 PM81 °FPassing clouds.7 mph62%29.95 "HgN/A
12:55 PM79 °FPartly sunny.8 mph65%29.98 "HgN/A
12:25 PM79 °FPartly sunny.10 mph65%29.98 "HgN/A
11:55 AM77 °FBroken clouds.7 mph65%30.01 "HgN/A
11:25 AM77 °FPartly sunny.6 mph65%30.01 "HgN/A
10:55 AM77 °FScattered clouds.6 mph61%30.01 "HgN/A
10:25 AM77 °FPassing clouds.6 mph61%30.04 "HgN/A
9:55 AM75 °FScattered clouds.3 mph65%30.04 "HgN/A
9:25 AM73 °FPartly sunny.3 mph69%30.04 "HgN/A
8:55 AM73 °FOvercast.1 mph69%30.07 "HgN/A
8:25 AM70 °FPartly sunny.2 mph73%30.07 "HgN/A
7:55 AM68 °FMild.1 mph78%30.07 "HgN/A
7:25 AM64 °FPartly sunny.1 mph94%30.07 "HgN/A
6:55 AM64 °FOvercast.No wind88%30.07 "HgN/A
6:25 AM63 °FMore clouds than sun.1 mph88%30.07 "HgN/A
5:55 AM61 °FPartly cloudy.1 mph94%30.09 "HgN/A
5:25 AM63 °FPassing clouds.1 mph88%30.09 "HgN/A
4:55 AM63 °FPassing clouds.1 mph94%30.09 "HgN/A
4:25 AM63 °FPassing clouds.No wind94%30.09 "HgN/A
3:55 AM64 °FOvercast.1 mph88%30.12 "HgN/A
3:25 AM64 °FOvercast.No wind88%30.12 "HgN/A
2:55 AM64 °FPassing clouds.2 mph88%30.12 "HgN/A
2:25 AM64 °FPassing clouds.2 mph88%30.12 "HgN/A
Weather by CustomWeather, © 2015

See weather overviewHow to use our weather pages